This demonstration page uses our WeatherBlox Daily Observations layout. Learn more.

Left ArrowRight Arrow

41.55636, -103.73856

Hourly Observations for December 23, 2018

Temp ( °F °C ) Dew Point ( °F °C ) Humidity (%) Winds ( mph kmh ) Pressure ( in mb ) Visibility ( mi km ) Precip ( " mm )
5:58 pm 17:58 Mostly Clear 20 -6.7 12 -11.3 70 70 WNW 12 19 30.31 1026 10 16 N/A
6:58 pm 18:58 Clear 22 -5.6 12 -11.2 65 65 NW 23 37 30.31 1026 10 16 N/A
7:58 pm 19:58 Clear 20 -6.4 11 -11.9 65 65 WNW 16 26 30.32 1027 10 16 N/A
8:58 pm 20:58 Clear 17 -8.1 8 -13.1 68 68 WNW 13 20 30.36 1028 10 16 N/A
9:58 pm 21:58 Clear 14 -9.8 7 -14 72 72 W 14 22 30.37 1029 10 16 N/A
10:58 pm 22:58 Clear 14 -10.2 5 -14.9 69 69 W 13 20 30.38 1029 10 16 N/A
11:58 pm 23:58 Clear 16 -8.8 8 -13.1 71 71 W 14 22 30.37 1029 10 16 N/A
12:58 am 00:58 Clear 17 -8.4 8 -13.4 68 68 W 10 17 30.36 1028 10 16 N/A
1:58 am 01:58 Clear 14 -9.9 4 -15.4 64 64 W 12 19 30.38 1029 10 16 N/A
2:58 am 02:58 Clear 12 -11 2 -16.7 63 63 W 7 11 30.38 1029 10 16 N/A
3:58 am 03:58 Clear 14 -9.8 3 -16.2 60 60 W 13 20 30.39 1029 10 16 N/A
4:58 am 04:58 Clear 16 -9 4 -15.6 59 59 W 16 26 30.38 1029 10 16 0.00 0.00
5:58 am 05:58 Clear 17 -8.2 6 -14.2 62 62 W 17 28 30.34 1028 10 16 N/A
6:58 am 06:58 Clear 19 -7.4 6 -14.2 59 59 W 16 26 30.34 1027 10 16 N/A
7:58 am 07:58 Mostly Sunny 19 -7 6 -14.5 55 55 W 13 20 30.34 1028 10 16 N/A
8:58 am 08:58 Sunny 23 -5 7 -13.7 51 51 W 14 22 30.34 1027 10 16 N/A
9:58 am 09:58 Sunny 27 -2.6 10 -12.1 48 48 W 8 13 30.33 1027 10 16 N/A
10:58 am 10:58 Sunny 32 0.1 12 -11.1 43 43 W 9 15 30.27 1025 10 16 N/A
11:58 am 11:58 Sunny 35 1.8 15 -9.6 43 43 W 15 24 30.21 1023 10 16 N/A
12:58 pm 12:58 Sunny 37 2.6 15 -9.3 42 42 W 12 19 30.20 1023 10 16 N/A
1:58 pm 13:58 Sunny 36 2.3 20 -6.7 52 52 SW 7 11 30.20 1023 10 16 N/A
2:58 pm 14:58 Sunny 35 1.6 21 -6.2 57 57 SSW 6 9 30.22 1023 10 16 N/A
3:58 pm 15:58 Sunny 30 -1.1 19 -7.1 64 64 SSW 10 17 30.22 1023 10 16 N/A
4:58 pm 16:58 Partly Cloudy 30 -0.9 15 -9.3 53 53 SSW 13 20 30.21 1023 10 16 N/A

Powered by AerisWeather